Location: Karlsruhe
(49.0131°N, 8.3874°E)
Time: 21:30:15
(UTC+01:00)

Envisat - Visible Passes

Search period start: 23 February 2018 00:00
Search period end: 05 March 2018 00:00
Orbit: 764 x 766 km, 98.2° (Epoch: 23 February)

Date Brightness Start Highest point End Pass type
(mag) Time Alt. Az. Time Alt. Az. Time Alt. Az.
23 Feb 3.9 18:42:59 10° ESE 18:47:18 29° ENE 18:51:37 10° N visible
23 Feb 4.0 20:21:16 10° S 20:26:08 46° W 20:31:02 10° NNW visible
24 Feb 2.9 19:44:14 10° SSE 19:49:19 89° ENE 19:54:26 10° NNW visible
24 Feb 5.8 21:26:28 10° WSW 21:29:03 14° W 21:31:39 10° NW visible
25 Feb 3.3 19:07:53 10° SE 19:12:42 45° ENE 19:17:32 10° N visible
25 Feb 4.9 20:47:34 10° SSW 20:51:54 28° W 20:56:16 10° NW visible
26 Feb 4.1 18:32:15 10° ESE 18:36:16 24° ENE 18:40:17 10° N visible
26 Feb 3.6 20:09:57 10° S 20:14:57 56° W 20:19:58 10° NNW visible
27 Feb 2.9 19:33:08 10° SSE 19:38:11 73° ENE 19:43:17 10° N visible
27 Feb 5.6 21:14:28 10° SW 21:17:46 17° W 21:21:05 10° NW visible
28 Feb 3.5 18:56:59 10° SE 19:01:37 37° ENE 19:06:17 10° N visible
28 Feb 4.5 20:36:04 10° SSW 20:40:40 34° W 20:45:18 10° NNW visible
01 Mar 3.3 19:58:43 10° S 20:03:46 70° WSW 20:08:52 10° NNW visible
02 Mar 3.0 19:22:06 10° SSE 19:27:05 60° ENE 19:32:05 10° N visible
02 Mar 5.3 21:02:41 10° SW 21:06:29 21° W 21:10:20 10° NW visible
03 Mar 3.8 18:46:09 10° SE 18:50:34 31° ENE 18:55:00 10° N visible
03 Mar 4.2 20:24:40 10° SSW 20:29:27 42° W 20:34:18 10° NNW visible
04 Mar 3.0 19:47:32 10° SSE 19:52:38 85° WSW 19:57:44 10° NNW visible
04 Mar 5.9 21:30:15 10° WSW 21:32:26 13° W 21:34:38 10° WNW visible
